FW3266 Weather Reports


Display with metric or nautical units.
time (UTC)temp
F
wind
direction
speed
MPH
gust
MPH
rain 1hr
in
rain 24hr
in
rain mn
in
humidity
%
barometer
mb
20260903121633 67 187 2.0 8.0 0.02 0.08 0.08 93 1016.0
20260903121130 67 184 3.0 8.0 0.02 0.08 0.08 93 1016.1
20260903120849 67 188 2.0 7.0 0.01 0.07 0.07 93 1016.3
20260903120129 67 157 1.0 7.0 0.01 0.07 0.07 93 1016.3
20260903115849 67 198 3.0 6.0 0.01 0.07 0.07 93 1016.1
20260903115126 66 203 1.0 7.0 0.02 0.07 0.07 93 1016.2
20260903114627 66 194 3.0 7.0 0.02 0.07 0.07 93 1016.3
20260903114125 66 194 1.0 6.0 0.01 0.06 0.06 93 1016.3
20260903113625 66 201 1.0 6.0 0.02 0.06 0.06 93 1016.4
20260903113122 66 186 3.0 8.0 0.02 0.06 0.06 93 1016.4
20260903112621 66 203 3.0 8.0 0.02 0.06 0.06 93 1016.4
20260903112120 66 194 3.0 8.0 0.02 0.06 0.06 93 1016.4
20260903111621 66 197 2.0 7.0 0.02 0.06 0.06 93 1016.6
20260903111121 66 198 3.0 7.0 0.02 0.06 0.06 93 1016.7
20260903110620 66 198 2.0 8.0 0.02 0.06 0.06 93 1016.6
20260903110344 66 185 2.0 8.0 0.02 0.06 0.06 93 1016.6
20260903105619 65 161 3.0 8.0 0.02 0.06 0.06 92 1016.4
20260903105118 65 198 3.0 8.0 0.01 0.05 0.06 92 1016.4
20260903104616 65 165 2.0 9.0 0.01 0.05 0.05 92 1016.3
20260903104114 65 180 2.0 9.0 0.01 0.05 0.05 92 1016.3
20260903103615 65 184 3.0 8.0 0.00 0.04 0.05 92 1016.3
20260903103115 65 188 1.0 8.0 0.01 0.04 0.04 92 1016.3
20260903102615 65 198 3.0 10.0 0.01 0.04 0.04 92 1016.3
20260903102107 65 184 4.0 10.0 0.01 0.04 0.04 92 1016.3
20260903101606 65 205 3.0 6.0 0.01 0.04 0.04 92 1016.1
20260903101105 65 198 2.0 6.0 0.02 0.04 0.04 92 1016.3
20260903100606 65 184 2.0 6.0 0.03 0.04 0.04 92 1016.5
20260903100105 65 206 3.0 6.0 0.03 0.04 0.04 92 1016.5
20260903095832 65 181 3.0 5.0 0.04 0.04 0.04 92 1016.6
20260903095104 65 207 1.0 5.0 0.04 0.04 0.04 92 1016.6
20260903094604 65 205 3.0 7.0 0.04 0.04 0.04 91 1016.7
20260903094105 65 174 2.0 7.0 0.04 0.04 0.04 91 1016.7
20260903093601 65 166 1.0 7.0 0.04 0.04 0.04 91 1017.0
20260903093102 65 207 3.0 8.0 0.03 0.03 0.04 91 1017.0
20260903092601 65 225 3.0 8.0 0.03 0.03 0.03 91 1016.8
20260903092101 65 198 4.0 7.0 0.03 0.03 0.03 91 1016.8
20260903091559 65 207 3.0 7.0 0.03 0.03 0.03 91 1016.9
20260903091058 66 198 4.0 8.0 0.02 0.02 0.02 90 1017.0
20260903090557 66 216 3.0 8.0 0.01 0.01 0.02 90 1017.0
20260903090055 66 195 2.0 6.0 0.01 0.01 0.01 90 1017.1
20260903085556 66 202 3.0 6.0 0.00 0.00 0.00 89 1017.2
20260903085053 66 193 2.0 6.0 0.00 0.00 0.00 89 1017.4
20260903084812 66 200 2.0 6.0 0.00 0.00 0.00 89 1017.5
20260903084047 66 182 2.0 7.0 0.00 0.00 0.00 89 1017.6
20260903083545 66 211 3.0 7.0 0.00 0.00 0.00 89 1017.6
20260903083044 66 167 1.0 6.0 0.00 0.00 0.00 89 1017.7
20260903082543 66 187 2.0 5.0 0.00 0.00 0.00 89 1017.8
20260903082306 66 162 3.0 8.0 0.00 0.00 0.00 89 1017.7
20260903081542 66 215 2.0 8.0 0.00 0.00 0.00 89 1017.7
20260903081040 66 166 2.0 7.0 0.00 0.00 0.00 89 1017.7
20260903080542 66 200 3.0 7.0 0.00 0.00 0.00 89 1017.9
20260903080532 66 194 2.0 5.0 0.00 0.00 0.00 89 1017.9
20260903075539 66 191 3.0 5.0 0.00 0.00 0.00 89 1017.9
20260903075039 66 204 2.0 7.0 0.00 0.00 0.00 89 1017.9
20260903074538 66 192 2.0 7.0 0.00 0.00 0.00 89 1017.9
20260903074037 66 210 2.0 5.0 0.00 0.00 0.00 89 1018.0
20260903073539 66 185 2.0 5.0 0.00 0.00 0.00 88 1018.1
20260903073038 66 191 2.0 5.0 0.00 0.00 0.00 88 1018.1
20260903072806 66 193 3.0 5.0 0.00 0.00 0.00 88 1018.3
20260903072036 65 226 3.0 5.0 0.00 0.00 0.00 88 1018.4
20260903071756 65 163 2.0 5.0 0.00 0.00 0.00 88 1018.5
20260903071036 65 166 1.0 6.0 0.00 0.00 0.00 88 1018.7
20260903070534 65 193 3.0 6.0 0.00 0.00 0.00 88 1018.7
20260903070033 65 200 2.0 4.0 0.00 0.00 0.00 88 1018.8
20260903065533 65 167 1.0 4.0 0.00 0.00 0.00 88 1018.7
20260903065030 65 184 2.0 5.0 0.00 0.00 0.00 88 1018.7
20260903064532 65 182 3.0 5.0 0.00 0.00 0.00 88 1018.7
20260903064030 65 151 2.0 4.0 0.00 0.00 0.00 87 1018.7
20260903063529 65 195 2.0 4.0 0.00 0.00 0.00 87 1018.9
20260903063023 65 204 2.0 5.0 0.00 0.00 0.00 88 1018.9
20260903062520 65 186 1.0 5.0 0.00 0.00 0.00 88 1019.1
20260903062019 64 216 2.0 4.0 0.00 0.00 0.00 88 1019.2
20260903061513 64 221 2.0 4.0 0.00 0.00 0.00 88 1019.5
20260903061009 64 196 2.0 4.0 0.00 0.00 0.00 88 1019.6
20260903060510 64 184 2.0 4.0 0.00 0.00 0.00 88 1019.7
20260903060232 64 188 1.0 4.0 0.00 0.00 0.00 89 1019.8
20260903055501 64 188 0.0 4.0 0.00 0.00 0.00 89 1019.9
20260903055001 64 198 2.0 6.0 0.00 0.00 0.00 90 1019.8
20260903054459 64 199 2.0 6.0 0.00 0.00 0.00 90 1019.9
20260903053952 64 190 1.0 4.0 0.00 0.00 0.00 90 1019.9
20260903053451 64 203 2.0 4.0 0.00 0.00 0.00 91 1020.0
20260903053208 64 198 1.0 3.0 0.00 0.00 0.00 91 1020.2
20260903052450 64 198 2.0 4.0 0.00 0.00 0.00 91 1020.3
20260903051948 64 198 1.0 4.0 0.00 0.00 0.00 91 1020.3
20260903051447 64 187 1.0 3.0 0.00 0.00 0.00 91 1020.3
20260903051422 64 179 0.0 3.0 0.00 0.00 0.00 91 1020.4
20260903050446 64 179 0.0 3.0 0.00 0.00 0.00 92 1020.5
20260903045947 64 179 1.0 3.0 0.00 0.00 0.00 92 1020.4
20260903045444 64 179 0.0 1.0 0.00 0.00 0.00 92 1020.4
20260903044930 64 179 0.0 1.0 0.00 0.00 0.00 92 1020.5
20260903044431 64 179 0.0 1.0 0.00 0.00 0.00 91 1020.3
20260903043923 63 179 0.0 1.0 0.00 0.00 0.00 91 1020.4
20260903043415 63 179 0.0 1.0 0.00 0.00 0.00 91 1020.4
20260903042917 63 179 0.0 1.0 0.00 0.00 0.00 91 1020.6
20260903042401 63 179 0.0 0.0 0.00 0.00 0.00 91 1020.4
20260903042351 63 179 0.0 0.0 0.00 0.00 0.00 91 1020.3
20260903041625 63 179 0.0 0.0 0.00 0.00 0.00 91 1020.3
20260903040853 63 179 0.0 1.0 0.00 0.00 0.00 91 1020.2
20260903040353 63 179 0.0 1.0 0.00 0.00 0.00 91 1020.3
20260903040110 63 179 0.0 1.0 0.00 0.00 0.00 91 1020.4
20260903035616 63 179 0.0 2.0 0.00 0.00 0.00 91 1020.5
20260903034851 63 179 0.0 2.0 0.00 0.00 0.00 91 1020.6
20260903034342 63 179 1.0 2.0 0.00 0.00 0.00 91 1020.7
20260903033843 63 179 0.0 0.0 0.00 0.00 0.00 91 1020.6
20260903033343 63 179 0.0 1.0 0.00 0.00 0.00 91 1020.7
20260903032840 63 179 0.0 1.0 0.00 0.00 0.00 91 1020.7
20260903032340 63 179 0.0 1.0 0.00 0.00 0.00 91 1020.8
20260903031839 63 179 0.0 2.0 0.00 0.00 0.00 91 1020.9
20260903031340 63 179 1.0 2.0 0.00 0.00 0.00 91 1020.8
20260903030841 63 179 0.0 1.0 0.00 0.00 0.00 91 1020.9
20260903030337 63 179 0.0 2.0 0.00 0.00 0.00 91 1021.0
20260903025838 63 179 0.0 2.0 0.00 0.00 0.00 91 1021.1
20260903025337 63 179 0.0 3.0 0.00 0.00 0.00 91 1021.0
20260903024836 63 179 0.0 3.0 0.00 0.00 0.00 91 1021.0
20260903024337 63 179 1.0 2.0 0.00 0.00 0.00 91 1020.8
20260903023834 63 179 1.0 2.0 0.00 0.00 0.00 91 1020.9
20260903023336 63 179 0.0 0.0 0.00 0.00 0.00 91 1021.0
20260903022827 63 179 0.0 2.0 0.00 0.00 0.00 91 1021.1
20260903022328 63 179 0.0 2.0 0.00 0.00 0.00 90 1021.0
20260903021826 63 179 0.0 1.0 0.00 0.00 0.00 90 1021.0
20260903021311 63 179 0.0 2.0 0.00 0.00 0.00 90 1021.1
20260903020812 63 179 0.0 2.0 0.00 0.00 0.00 90 1021.1
20260903020532 63 179 0.0 2.0 0.00 0.00 0.00 90 1020.9
20260903020037 63 179 0.0 2.0 0.00 0.00 0.00 90 1021.0
20260903015529 63 179 0.0 1.0 0.00 0.00 0.00 90 1021.0
20260903015027 63 179 0.0 1.0 0.00 0.00 0.00 90 1021.2
20260903014528 63 179 0.0 0.0 0.00 0.00 0.00 89 1021.3
20260903013808 63 179 0.0 0.0 0.00 0.00 0.00 89 1021.4
20260903013519 63 179 0.0 0.0 0.00 0.00 0.00 89 1021.4
20260903012753 63 179 0.0 1.0 0.00 0.00 0.00 89 1021.4
20260903012251 63 179 0.0 1.0 0.00 0.00 0.00 89 1021.3
20260903011751 63 179 0.0 2.0 0.00 0.00 0.00 89 1021.4
20260903011251 63 179 0.0 2.0 0.00 0.00 0.00 89 1021.4
20260903011013 64 179 0.0 2.0 0.00 0.00 0.00 89 1021.4
20260903010248 64 179 1.0 2.0 0.00 0.00 0.00 89 1021.4
20260903010235 64 179 0.0 3.0 0.00 0.00 0.00 89 1021.5
20260903005240 64 179 0.0 3.0 0.00 0.00 0.00 89 1021.5
20260903004738 64 179 0.0 1.0 0.00 0.00 0.00 88 1021.5
20260903004239 64 179 0.0 0.0 0.00 0.00 0.00 88 1021.6
20260903003738 65 179 0.0 1.0 0.00 0.00 0.00 88 1021.7
20260903003511 65 179 0.0 1.0 0.00 0.00 0.00 88 1021.6
20260903002957 65 179 0.0 1.0 0.00 0.00 0.00 88 1021.6
20260903002230 65 179 0.0 1.0 0.00 0.00 0.00 87 1021.8
20260903001951 66 179 0.0 1.0 0.00 0.00 0.00 87 1021.9
20260903001227 66 179 0.0 0.0 0.00 0.00 0.00 87 1022.0
20260903000726 66 179 0.0 3.0 0.00 0.00 0.00 86 1022.2
20260903000226 66 179 1.0 3.0 0.00 0.00 0.00 87 1022.1
20260902235724 67 197 0.0 2.0 0.00 0.00 0.00 87 1022.0
20260902235223 67 197 1.0 6.0 0.00 0.00 0.00 87 1022.0
20260902234724 67 197 2.0 6.0 0.00 0.00 0.00 86 1021.8
20260902234217 67 205 2.0 4.0 0.00 0.00 0.00 86 1021.8
20260902233716 67 208 2.0 4.0 0.00 0.00 0.00 86 1021.8
20260902233215 67 206 1.0 5.0 0.00 0.00 0.00 86 1021.8
20260902232706 67 191 2.0 5.0 0.00 0.00 0.00 86 1021.8
20260902232206 67 248 1.0 3.0 0.00 0.00 0.00 86 1021.9
20260902231704 67 185 1.0 3.0 0.00 0.00 0.00 86 1022.0
20260902231206 67 185 1.0 3.0 0.00 0.00 0.00 86 1022.1
20260902230703 67 184 2.0 3.0 0.00 0.00 0.00 85 1022.2
20260902230202 67 221 1.0 3.0 0.00 0.00 0.00 85 1022.3
20260902225701 67 173 2.0 5.0 0.00 0.00 0.00 85 1022.1
20260902225159 67 199 2.0 5.0 0.00 0.00 0.00 85 1022.1
20260902224658 67 193 2.0 5.0 0.00 0.00 0.00 85 1022.0
20260902224156 68 193 1.0 4.0 0.00 0.00 0.00 85 1022.2
20260902223657 68 203 1.0 4.0 0.00 0.00 0.00 85 1022.3
20260902223154 68 192 1.0 3.0 0.00 0.00 0.00 84 1022.5
20260902222655 68 190 2.0 3.0 0.00 0.00 0.00 84 1022.5
20260902222153 68 222 1.0 3.0 0.00 0.00 0.00 84 1022.6
20260902221654 68 221 1.0 2.0 0.00 0.00 0.00 83 1022.6
20260902221145 68 217 1.0 3.0 0.00 0.00 0.00 83 1022.6
20260902220647 68 217 1.0 3.0 0.00 0.00 0.00 83 1022.7
20260902220144 68 217 1.0 3.0 0.00 0.00 0.00 83 1022.5
20260902215642 68 215 1.0 3.0 0.00 0.00 0.00 83 1022.3
20260902215143 69 182 0.0 4.0 0.00 0.00 0.00 83 1022.3
20260902214642 69 193 2.0 5.0 0.00 0.00 0.00 83 1022.1
20260902214143 69 210 3.0 5.0 0.00 0.00 0.00 83 1022.0
20260902213905 69 297 2.0 4.0 0.00 0.00 0.00 83 1022.0
20260902213401 69 218 2.0 4.0 0.00 0.00 0.00 82 1022.0
20260902212639 69 228 2.0 4.0 0.00 0.00 0.00 83 1022.1
20260902212137 69 307 1.0 5.0 0.00 0.00 0.00 82 1022.3
20260902211640 69 200 2.0 5.0 0.00 0.00 0.00 82 1022.3
20260902211137 69 227 2.0 4.0 0.00 0.00 0.00 82 1022.3
20260902210635 69 214 2.0 4.0 0.00 0.00 0.00 82 1022.4
20260902210134 69 203 2.0 4.0 0.00 0.00 0.00 82 1022.6
20260902205634 69 254 1.0 3.0 0.00 0.00 0.00 82 1022.6
20260902205133 69 207 2.0 3.0 0.00 0.00 0.00 82 1022.7
20260902204632 69 259 1.0 3.0 0.00 0.00 0.00 81 1022.6
20260902204129 69 170 2.0 3.0 0.00 0.00 0.00 81 1022.6
20260902203847 69 192 1.0 3.0 0.00 0.00 0.00 81 1022.7
20260902203128 69 185 1.0 3.0 0.00 0.00 0.00 81 1022.8
20260902202627 70 210 2.0 3.0 0.00 0.00 0.00 81 1022.7
20260902202128 70 180 2.0 4.0 0.00 0.00 0.00 81 1022.7
20260902201625 70 170 1.0 4.0 0.00 0.00 0.00 80 1022.6
20260902201125 70 154 2.0 4.0 0.00 0.00 0.00 80 1022.5
20260902200844 70 213 2.0 4.0 0.00 0.00 0.00 79 1022.6
20260902200123 70 187 2.0 4.0 0.00 0.00 0.00 79 1022.7
20260902195621 71 148 2.0 4.0 0.00 0.00 0.00 78 1022.9
20260902195121 71 209 2.0 4.0 0.00 0.00 0.00 78 1022.9
20260902194620 71 192 2.0 4.0 0.00 0.00 0.00 78 1022.9
20260902194121 71 250 2.0 5.0 0.00 0.00 0.00 78 1022.9
20260902193821 71 167 1.0 4.0 0.00 0.00 0.00 78 1023.0
20260902193704 71 235 2.0 5.0 0.00 0.00 0.00 78 1023.0
20260902192610 71 231 2.0 4.0 0.00 0.00 0.00 78 1023.1
20260902192111 71 26 2.0 4.0 0.00 0.00 0.00 78 1023.1
20260902191610 71 184 2.0 4.0 0.00 0.00 0.00 78 1023.1
20260902191109 71 188 2.0 4.0 0.00 0.00 0.00 78 1022.9
20260902190606 71 179 2.0 4.0 0.00 0.00 0.00 78 1022.8
20260902190108 71 252 2.0 6.0 0.00 0.00 0.00 78 1022.9
20260902185606 71 295 2.0 6.0 0.00 0.00 0.00 78 1023.0
20260902185105 71 181 2.0 5.0 0.00 0.00 0.00 78 1022.9
20260902184826 71 216 2.0 4.0 0.00 0.00 0.00 78 1022.9
20260902184105 71 162 1.0 4.0 0.00 0.00 0.00 78 1023.0
20260902183603 71 170 2.0 4.0 0.00 0.00 0.00 78 1023.0
20260902183101 71 200 1.0 4.0 0.00 0.00 0.00 78 1023.0
20260902182559 71 233 1.0 4.0 0.00 0.00 0.00 78 1023.0
20260902182101 71 275 2.0 4.0 0.00 0.00 0.00 78 1023.0
20260902181559 71 257 2.0 4.0 0.00 0.00 0.00 78 1022.9
20260902181059 71 212 2.0 5.0 0.00 0.00 0.00 77 1023.0
20260902180557 71 191 2.0 5.0 0.00 0.00 0.00 77 1023.0
20260902180055 71 165 1.0 4.0 0.00 0.00 0.00 77 1023.0
20260902175555 71 195 1.0 3.0 0.00 0.00 0.00 77 1023.1
20260902175053 71 224 2.0 4.0 0.00 0.00 0.00 77 1023.2
20260902174553 71 147 1.0 4.0 0.00 0.00 0.00 77 1023.2
20260902174543 72 198 1.0 4.0 0.00 0.00 0.00 77 1023.2
20260902173816 71 159 1.0 4.0 0.00 0.00 0.00 77 1023.2
20260902173052 71 129 1.0 3.0 0.00 0.00 0.00 77 1023.2
20260902172542 72 185 1.0 4.0 0.00 0.00 0.00 78 1023.2
20260902172308 72 210 2.0 4.0 0.00 0.00 0.00 77 1023.2
20260902171545 72 174 2.0 3.0 0.00 0.00 0.00 77 1023.2
20260902171041 72 186 1.0 5.0 0.00 0.00 0.00 77 1023.2
20260902170804 72 142 1.0 5.0 0.00 0.00 0.00 78 1023.1
20260902170301 72 138 2.0 4.0 0.00 0.00 0.00 78 1023.0
20260902165539 71 99 2.0 4.0 0.00 0.00 0.00 79 1023.1
20260902165040 71 162 1.0 4.0 0.00 0.00 0.00 79 1023.4
20260902164537 71 182 2.0 5.0 0.00 0.00 0.00 79 1023.4
20260902164038 71 222 2.0 5.0 0.00 0.00 0.00 79 1023.3
20260902163535 71 215 2.0 4.0 0.00 0.00 0.00 80 1023.2
20260902163035 71 221 2.0 3.0 0.00 0.00 0.00 80 1023.3
20260902162537 70 200 2.0 5.0 0.00 0.00 0.00 81 1023.4
20260902162034 70 184 2.0 5.0 0.00 0.00 0.00 80 1023.5
20260902161534 71 191 2.0 5.0 0.00 0.00 0.00 80 1023.5
20260902161026 71 198 2.0 5.0 0.00 0.00 0.00 79 1023.5
20260902160525 71 206 2.0 3.0 0.00 0.00 0.00 79 1023.5
20260902160024 71 221 2.0 3.0 0.00 0.00 0.00 78 1023.6
20260902155523 71 339 1.0 3.0 0.00 0.00 0.00 79 1023.7
20260902155022 71 247 2.0 3.0 0.00 0.00 0.00 79 1023.8
20260902154521 71 181 1.0 4.0 0.00 0.00 0.00 79 1023.6
20260902154022 71 205 2.0 4.0 0.00 0.00 0.00 78 1023.6
20260902153519 71 234 2.0 5.0 0.00 0.00 0.00 78 1023.7
20260902153020 72 235 2.0 5.0 0.00 0.00 0.00 78 1023.6
20260902152518 71 211 2.0 5.0 0.00 0.00 0.00 79 1023.7
20260902152239 71 233 1.0 5.0 0.00 0.00 0.00 79 1023.7
20260902151516 72 224 2.0 4.0 0.00 0.00 0.00 80 1023.6
20260902151503 71 133 1.0 4.0 0.00 0.00 0.00 81 1023.6
20260902150514 71 139 1.0 4.0 0.00 0.00 0.00 81 1023.6
20260902150014 71 181 1.0 4.0 0.00 0.00 0.00 82 1023.6
20260902145512 70 231 2.0 5.0 0.00 0.00 0.00 82 1023.5
20260902145012 70 168 2.0 5.0 0.00 0.00 0.00 82 1023.5
20260902144511 70 201 2.0 5.0 0.00 0.00 0.00 82 1023.5
20260902144010 70 177 1.0 3.0 0.00 0.00 0.00 82 1023.4
20260902143510 70 197 2.0 3.0 0.00 0.00 0.00 82 1023.3
20260902143008 70 191 1.0 4.0 0.00 0.00 0.00 83 1023.2
20260902142506 70 196 2.0 4.0 0.00 0.00 0.00 83 1023.1
20260902142008 70 231 1.0 4.0 0.00 0.00 0.00 83 1023.1
20260902141506 70 220 1.0 4.0 0.00 0.00 0.00 83 1023.0
20260902140950 69 197 1.0 4.0 0.00 0.00 0.00 83 1022.8
20260902140452 69 200 2.0 4.0 0.00 0.00 0.00 83 1022.9
20260902135950 69 201 2.0 4.0 0.00 0.00 0.00 83 1023.0
20260902135932 69 205 2.0 4.0 0.00 0.01 0.00 83 1022.9
20260902134946 69 219 1.0 3.0 0.00 0.01 0.00 84 1022.9
20260902134704 69 171 1.0 3.0 0.00 0.01 0.00 84 1022.8
20260902133945 69 184 1.0 3.0 0.00 0.01 0.00 84 1022.9
20260902133444 69 193 1.0 2.0 0.00 0.01 0.00 84 1022.8
20260902132943 69 172 1.0 3.0 0.00 0.02 0.00 84 1022.9
20260902132700 69 177 1.0 3.0 0.00 0.02 0.00 84 1023.0
20260902131942 68 176 1.0 2.0 0.00 0.03 0.00 84 1022.9
20260902131705 68 176 1.0 2.0 0.00 0.03 0.00 84 1022.9
20260902130941 68 177 1.0 3.0 0.00 0.03 0.00 84 1022.8
20260902130440 68 176 1.0 3.0 0.00 0.03 0.00 84 1022.9
20260902125940 68 176 0.0 3.0 0.00 0.03 0.00 84 1023.1
20260902125439 68 176 0.0 3.0 0.00 0.03 0.00 84 1023.1
20260902124939 68 176 1.0 4.0 0.00 0.03 0.00 84 1023.0
20260902124438 68 205 1.0 4.0 0.00 0.03 0.00 84 1023.0
20260902123937 68 210 1.0 4.0 0.00 0.03 0.00 84 1023.0
20260902123435 68 184 1.0 4.0 0.00 0.03 0.00 84 1022.9
20260902122935 68 203 0.0 3.0 0.00 0.03 0.00 84 1022.8
20260902122435 68 203 1.0 4.0 0.00 0.03 0.00 84 1022.9
20260902121933 68 201 1.0 4.0 0.00 0.03 0.00 84 1023.0